Weather in Pitishevo

Russia / Chuvash Republic     55°45′07″N   46°03′13″E
temp.,
°C
wind,
m/s
gust,
m/s
humid.,
%
clouds,
%
prec.,
mm/h
press.,
hPa
HPBL,
m
12 may, wed
wed1200:00+14ese259378 0.6 102786
03:00+13ene34905 0.6 102761
06:00+15ene278455 0.0 1027186
09:00+20e46649 0.0 1026519
12:00+24ese574611 0.0 10252141
15:00+24ese684928 0.0 10242255
18:00+21ese3566100 0.0 102385
21:00+19se5125763 0.0 1024398
13 may, thu
thu1300:00+16ese396575 0.0 1024195
03:00+13se38775 0.0 1024144
06:00+15ese487923 0.0 1023224
09:00+18ese5117050 0.0 1023493
12:00+20ese61066100 0.0 1022888
15:00+17ene4108599 2.7 1020276
18:00+20sse6137295 0.5 1018499
21:00+16sse410856 1.3 1019193
14 may, fri
fri1400:00+14sse379417 0.1 1019151
03:00+13sse22945 0.1 101921
06:00+15s2390100 0.0 1020107
09:00+20s3476100 0.0 1020605
12:00+22s3466100 0.0 10201021
15:00+24s34593 0.0 10201240
18:00+22se237370 0.0 101891
21:00+18se3384100 0.0 101826
15 may, sat
sat1500:00+16sse2389100 0.0 101831
03:00+16se228887 0.0 101727
06:00+17se388376 0.0 1017213
09:00+22s51162100 0.1 1016511
12:00+25s71253100 0.0 1016908
15:00+25s7125141 0.0 10161077
18:00+22s5126341 0.0 1015341
21:00+17sse414740 0.0 1015275
16 may, sun
sun1600:00+16sse4127634 0.0 1014198
03:00+15sse4107620 0.0 1014174
06:00+16s4117756 0.0 1014339
09:00+21ssw576440 0.0 1014594
12:00+24sw5759100 0.0 10141169
15:00+24sw5867100 0.4 10141278
18:00+21sw49780 1.8 1014363
21:00+17wsw348922 1.8 101554